2019-200T01:28:07.124,   1, 240,   2,     1,   4,          0,     44.153,  99294.559,    33.668,    -3.205,     0.544,   292.088, 2, 5.486E-04, -1.00,   2,  1.537E-02,  2.934E-03,  6.030E-12,  9.518E-13,  2.448E+03,  3.864E+02, 255
2019-200T01:28:08.124,   1, 240,   2,     1,   4,          0,     44.153,  99294.559,    33.668,    -3.205,     0.544,   292.077, 2, 5.486E-04, -1.00,   2,  1.576E-02,  2.722E-03,  9.127E-12,  1.048E-12,  3.614E+03,  4.151E+02, 255
2019-200T01:28:09.124,   1, 240,   2,     1,   4,          0,     44.153,  99294.559,    33.668,    -3.205,     0.544,   292.067, 2, 5.486E-04, -1.00,   2,  1.651E-02,  2.695E-03,  5.594E-12,  1.334E-12,  2.115E+03,  5.041E+02, 255
2019-200T01:28:10.124,   1, 240,   2,     1,   4,          0,     44.153,  99294.559,    33.668,    -3.205,     0.544,   292.057, 2, 5.486E-04, -1.00,   2,  1.910E-02,  2.745E-03,  3.332E-12,  2.525E-12,  1.089E+03,  8.253E+02, 255
2019-200T01:29:23.125,   1, 240,   2,     1,   4,          0,     44.153,  99294.559,    33.659,    -3.202,     0.544,   291.321, 2, 5.486E-04, -1.00,   2,  1.214E-02,  2.754E-03,  1.089E-11,  1.047E-12,  5.601E+03,  5.383E+02, 255
2019-200T01:29:24.125,   1, 240,   2,     1,   4,          0,     44.153,  99294.559,    33.659,    -3.202,     0.544,   291.311, 2, 5.486E-04, -1.00,   2,  1.823E-02,  2.662E-03,  5.690E-12,  1.118E-12,  1.948E+03,  3.829E+02, 255
2019-200T01:29:25.125,   1, 240,   2,     1,   4,          0,     44.153,  99294.559,    33.659,    -3.202,     0.544,   291.301, 2, 5.486E-04, -1.00,   2,  1.594E-02,  2.694E-03,  7.591E-12,  1.617E-12,  2.973E+03,  6.334E+02, 255
2019-200T01:30:05.125,   1, 240,   2,     1,   4,          0,     44.153,  99294.559,    33.654,    -3.200,     0.544,   290.898, 2, 5.486E-04, -1.00,   2,  1.700E-02,  3.050E-03,  7.206E-12,  9.149E-13,  2.646E+03,  3.359E+02, 255
2019-200T01:30:06.125,   1, 240,   2,     1,   4,          0,     44.153,  99294.559,    33.654,    -3.200,     0.544,   290.888, 2, 5.486E-04, -1.00,   2,  1.405E-02,  2.997E-03,  5.907E-12,  9.537E-13,  2.624E+03,  4.237E+02, 255
2019-200T01:30:07.125,   1, 240,   2,     1,   4,          0,     44.153,  99294.559,    33.654,    -3.200,     0.544,   290.877, 2, 5.486E-04, -1.00,   2,  2.168E-02,  2.769E-03,  1.186E-11,  1.036E-12,  3.414E+03,  2.982E+02, 255
2019-200T01:30:08.125,   1, 240,   2,     1,   4,          0,     44.153,  99294.559,    33.654,    -3.200,     0.544,   290.867, 2, 5.486E-04, -1.00,   2,  1.609E-02,  2.712E-03,  6.477E-12,  1.121E-12,  2.512E+03,  4.349E+02, 255
2019-200T01:30:09.125,   1, 240,   2,     1,   4,          0,     44.153,  99294.559,    33.654,    -3.200,     0.544,   290.857, 2, 5.486E-04, -1.00,   2,  1.581E-02,  2.694E-03,  1.728E-12,  1.644E-12,  6.822E+02,  6.490E+02, 255
2019-200T01:30:10.125,   1, 240,   2,     1,   4,          0,     44.153,  99294.559,    33.654,    -3.200,     0.544,   290.847, 2, 5.486E-04, -1.00,   2,  1.895E-02,  2.737E-03,  4.956E-12,  2.525E-12,  1.632E+03,  8.316E+02, 255
2019-200T01:30:48.126,   1, 240,   2,     1,   4,          0,     44.153,  99294.559,    33.649,    -3.198,     0.544,   290.464, 2, 5.486E-04, -1.00,   2,  2.048E-02,  3.684E-03,  9.569E-12,  1.142E-12,  2.916E+03,  3.479E+02, 255
2019-200T01:30:49.126,   1, 240,   2,     1,   4,          0,     44.153,  99294.559,    33.649,    -3.198,     0.544,   290.454, 2, 5.486E-04, -1.00,   2,  1.956E-02,  3.397E-03,  4.836E-12,  1.039E-12,  1.543E+03,  3.316E+02, 255
2019-200T01:30:50.126,   1, 240,   2,     1,   4,          0,     44.153,  99294.559,    33.649,    -3.198,     0.544,   290.444, 2, 5.486E-04, -1.00,   2,  1.497E-02,  3.633E-03,  7.428E-12,  9.391E-13,  3.097E+03,  3.915E+02, 255
2019-200T01:31:04.126,   1, 240,   2,     1,   4,          0,     44.153,  99294.559,    33.647,    -3.197,     0.544,   290.303, 2, 5.486E-04, -1.00,   2,  1.702E-02,  3.222E-03,  2.379E-12,  9.795E-13,  8.722E+02,  3.591E+02, 255
2019-200T01:31:05.126,   1, 240,   2,     1,   4,          0,     44.153,  99294.559,    33.647,    -3.197,     0.544,   290.293, 2, 5.486E-04, -1.00,   2,  1.504E-02,  3.161E-03,  5.300E-12,  9.290E-13,  2.200E+03,  3.856E+02, 255
2019-200T01:31:06.126,   1, 240,   2,     1,   4,          0,     44.153,  99294.559,    33.647,    -3.197,     0.544,   290.282, 2, 5.486E-04, -1.00,   2,  2.227E-02,  2.996E-03,  8.112E-12,  9.796E-13,  2.274E+03,  2.746E+02, 255
2019-200T01:32:33.127,   1, 240,   2,     1,   4,          0,     44.153,  99294.559,    33.637,    -3.194,     0.544,   289.405, 2, 5.486E-04, -1.00,   2,  2.446E-02,  3.387E-03,  1.239E-11,  1.207E-12,  3.162E+03,  3.080E+02, 255
2019-200T01:32:34.127,   1, 240,   2,     1,   4,          0,     44.153,  99294.559,    33.637,    -3.194,     0.544,   289.395, 2, 5.486E-04, -1.00,   2,  2.838E-02,  3.390E-03,  1.458E-11,  1.029E-12,  3.206E+03,  2.263E+02, 255
2019-200T01:32:35.127,   1, 240,   2,     1,   4,          0,     44.153,  99294.559,    33.637,    -3.194,     0.544,   289.385, 2, 5.486E-04, -1.00,   2,  2.835E-02,  3.335E-03,  1.465E-11,  9.510E-13,  3.226E+03,  2.094E+02, 255
2019-200T01:33:30.127,   1, 240,   2,     1,   4,          0,     44.153,  99294.559,    33.630,    -3.191,     0.544,   288.830, 2, 5.486E-04, -1.00,   2,  3.320E-02,  3.574E-03,  9.067E-12,  2.369E-12,  1.704E+03,  4.454E+02, 255
2019-200T01:33:31.127,   1, 240,   2,     1,   4,          0,     44.153,  99294.559,    33.630,    -3.191,     0.544,   288.820, 2, 5.486E-04, -1.00,   2,  3.837E-02,  3.255E-03,  1.731E-11,  1.237E-12,  2.816E+03,  2.012E+02, 255
2019-200T01:33:32.127,   1, 240,   2,     1,   4,          0,     44.153,  99294.559,    33.630,    -3.191,     0.544,   288.810, 2, 5.486E-04, -1.00,   2,  4.535E-02,  3.351E-03,  1.726E-11,  1.059E-12,  2.376E+03,  1.457E+02, 255
2019-200T01:34:07.128,   1, 240,   2,     1,   4,          0,     44.153,  99294.559,    33.626,    -3.190,     0.544,   288.457, 2, 5.486E-04, -1.00,   2,  4.327E-02,  2.970E-03,  1.602E-11,  9.964E-13,  2.311E+03,  1.437E+02, 255
2019-200T01:34:08.128,   1, 240,   2,     1,   4,          0,     44.153,  99294.559,    33.626,    -3.190,     0.544,   288.447, 2, 5.486E-04, -1.00,   2,  4.225E-02,  2.811E-03,  1.638E-11,  1.166E-12,  2.419E+03,  1.723E+02, 255
2019-200T01:34:09.128,   1, 240,   2,     1,   4,          0,     44.153,  99294.559,    33.626,    -3.190,     0.544,   288.437, 2, 5.486E-04, -1.00,   2,  2.922E-02,  2.832E-03,  1.086E-11,  1.604E-12,  2.319E+03,  3.426E+02, 255
2019-200T01:34:52.128,   1, 240,   2,     1,   4,          0,     44.153,  99294.559,    33.620,    -3.188,     0.544,   288.003, 2, 5.486E-04, -1.00,   2,  3.780E-02,  2.938E-03,  1.516E-11,  9.841E-13,  2.503E+03,  1.625E+02, 255
2019-200T01:34:53.128,   1, 240,   2,     1,   4,          0,     44.153,  99294.559,    33.620,    -3.188,     0.544,   287.993, 2, 5.486E-04, -1.00,   2,  3.936E-02,  2.901E-03,  1.841E-11,  1.006E-12,  2.919E+03,  1.595E+02, 255
2019-200T01:34:54.128,   1, 240,   2,     1,   4,          0,     44.153,  99294.559,    33.620,    -3.188,     0.544,   287.983, 2, 5.486E-04, -1.00,   2,  3.916E-02,  2.925E-03,  1.543E-11,  1.255E-12,  2.460E+03,  2.000E+02, 255
2019-200T01:34:55.129,   1, 240,   2,     1,   4,          0,     44.153,  99294.559,    33.620,    -3.188,     0.544,   287.973, 2, 5.486E-04, -1.00,   2,  3.970E-02,  2.842E-03,  1.386E-11,  1.690E-12,  2.179E+03,  2.657E+02, 255
2019-200T01:36:53.130,   1, 240,   2,     1,   4,          0,     44.153,  99294.559,    33.606,    -3.182,     0.544,   286.783, 2, 5.486E-04, -1.00,   2,  1.971E-02,  2.840E-03,  1.012E-11,  9.679E-13,  3.204E+03,  3.066E+02, 255
2019-200T01:36:54.130,   1, 240,   2,     1,   4,          0,     44.153,  99294.559,    33.606,    -3.182,     0.544,   286.773, 2, 5.486E-04, -1.00,   2,  2.623E-02,  2.818E-03,  1.183E-11,  9.907E-13,  2.814E+03,  2.357E+02, 255
2019-200T01:36:55.130,   1, 240,   2,     1,   4,          0,     44.153,  99294.559,    33.606,    -3.182,     0.544,   286.763, 2, 5.486E-04, -1.00,   2,  1.924E-02,  2.728E-03,  1.316E-11,  1.139E-12,  4.269E+03,  3.696E+02, 255
2019-200T01:37:22.130,   1, 240,   2,     1,   4,          0,     44.153,  99294.559,    33.603,    -3.181,     0.544,   286.491, 2, 5.486E-04, -1.00,   2,  2.299E-02,  3.199E-03,  8.376E-12,  9.495E-13,  2.274E+03,  2.578E+02, 255
2019-200T01:37:23.130,   1, 240,   2,     1,   4,          0,     44.153,  99294.559,    33.603,    -3.181,     0.544,   286.481, 2, 5.486E-04, -1.00,   2,  1.664E-02,  2.855E-03,  7.911E-12,  9.547E-13,  2.968E+03,  3.581E+02, 255
2019-200T01:37:24.130,   1, 240,   2,     1,   4,          0,     44.153,  99294.559,    33.603,    -3.181,     0.544,   286.471, 2, 5.486E-04, -1.00,   2,  2.562E-02,  2.748E-03,  1.057E-11,  1.050E-12,  2.576E+03,  2.558E+02, 255
2019-200T01:37:25.130,   1, 240,   2,     1,   4,          0,     44.153,  99294.559,    33.602,    -3.181,     0.544,   286.461, 2, 5.486E-04, -1.00,   2,  1.837E-02,  2.771E-03,  5.665E-12,  1.217E-12,  1.925E+03,  4.136E+02, 255
2019-200T01:37:26.130,   1, 240,   2,     1,   4,          0,     44.153,  99294.559,    33.602,    -3.181,     0.544,   286.450, 2, 5.486E-04, -1.00,   2,  1.796E-02,  2.691E-03,  7.293E-12,  1.601E-12,  2.534E+03,  5.564E+02, 255
2019-200T01:39:20.132,   1, 240,   2,     1,   4,          0,     44.153,  99294.559,    33.589,    -3.176,     0.544,   285.301, 2, 5.486E-04, -1.00,   2,  3.674E-02,  3.508E-03,  1.210E-11,  1.001E-12,  2.055E+03,  1.701E+02, 255
2019-200T01:39:21.132,   1, 240,   2,     1,   4,          0,     44.153,  99294.559,    33.589,    -3.176,     0.544,   285.291, 2, 5.486E-04, -1.00,   2,  3.880E-02,  3.313E-03,  1.575E-11,  9.565E-13,  2.534E+03,  1.539E+02, 255
2019-200T01:39:22.132,   1, 240,   2,     1,   4,          0,     44.153,  99294.559,    33.589,    -3.176,     0.544,   285.281, 2, 5.486E-04, -1.00,   2,  3.848E-02,  2.993E-03,  1.192E-11,  9.485E-13,  1.933E+03,  1.539E+02, 255
2019-200T01:39:36.132,   1, 240,   2,     1,   4,          0,     44.153,  99294.559,    33.587,    -3.175,     0.544,   285.139, 2, 5.486E-04, -1.00,   2,  3.728E-02,  3.271E-03,  1.604E-11,  9.812E-13,  2.685E+03,  1.643E+02, 255
2019-200T01:39:37.132,   1, 240,   2,     1,   4,          0,     44.153,  99294.559,    33.587,    -3.175,     0.544,   285.129, 2, 5.486E-04, -1.00,   2,  3.191E-02,  3.151E-03,  1.385E-11,  9.536E-13,  2.710E+03,  1.866E+02, 255
2019-200T01:39:38.132,   1, 240,   2,     1,   4,          0,     44.153,  99294.559,    33.587,    -3.175,     0.544,   285.119, 2, 5.486E-04, -1.00,   2,  3.352E-02,  3.116E-03,  1.488E-11,  9.551E-13,  2.770E+03,  1.778E+02, 255
2019-200T01:39:39.132,   1, 240,   2,     1,   4,          0,     44.153,  99294.559,    33.587,    -3.175,     0.544,   285.109, 2, 5.486E-04, -1.00,   2,  3.773E-02,  2.808E-03,  1.592E-11,  1.063E-12,  2.633E+03,  1.758E+02, 255
2019-200T01:40:39.132,   1, 240,   2,     1,   4,          0,     44.153,  99294.559,    33.580,    -3.173,     0.544,   284.504, 2, 5.486E-04, -1.00,   2,  2.679E-02,  2.844E-03,  1.869E-11,  1.150E-12,  4.354E+03,  2.678E+02, 255
2019-200T01:40:40.132,   1, 240,   2,     1,   4,          0,     44.153,  99294.559,    33.579,    -3.173,     0.544,   284.494, 2, 5.486E-04, -1.00,   2,  3.708E-02,  2.804E-03,  1.239E-11,  1.303E-12,  2.085E+03,  2.193E+02, 255
2019-200T01:40:41.132,   1, 240,   2,     1,   4,          0,     44.153,  99294.559,    33.579,    -3.173,     0.544,   284.484, 2, 5.486E-04, -1.00,   2,  3.546E-02,  2.803E-03,  1.741E-11,  2.529E-12,  3.064E+03,  4.452E+02, 255
2019-200T01:41:07.133,   1, 240,   2,     1,   4,          0,     44.153,  99294.559,    33.576,    -3.171,     0.544,   284.222, 2, 5.486E-04, -1.00,   2,  2.796E-02,  3.113E-03,  9.987E-12,  9.886E-13,  2.229E+03,  2.206E+02, 255
2019-200T01:41:08.133,   1, 240,   2,     1,   4,          0,     44.153,  99294.559,    33.576,    -3.171,     0.544,   284.212, 2, 5.486E-04, -1.00,   2,  2.386E-02,  3.151E-03,  1.550E-11,  9.923E-13,  4.054E+03,  2.596E+02, 255
2019-200T01:41:09.133,   1, 240,   2,     1,   4,          0,     44.153,  99294.559,    33.576,    -3.171,     0.544,   284.202, 2, 5.486E-04, -1.00,   2,  2.069E-02,  2.810E-03,  1.233E-11,  1.059E-12,  3.720E+03,  3.195E+02, 255
2019-200T01:43:51.135,   1, 240,   2,     1,   4,          0,     44.153,  99294.559,    33.557,    -3.164,     0.544,   282.568, 2, 5.486E-04, -1.00,   2,  1.913E-02,  3.442E-03,  1.778E-11,  9.851E-13,  5.801E+03,  3.214E+02, 255
2019-200T01:43:52.135,   1, 240,   2,     1,   4,          0,     44.153,  99294.559,    33.557,    -3.164,     0.544,   282.558, 2, 5.486E-04, -1.00,   2,  2.748E-02,  3.054E-03,  1.631E-11,  9.771E-13,  3.705E+03,  2.219E+02, 255
2019-200T01:43:53.135,   1, 240,   2,     1,   4,          0,     44.153,  99294.559,    33.557,    -3.164,     0.544,   282.548, 2, 5.486E-04, -1.00,   2,  2.349E-02,  2.881E-03,  2.030E-11,  1.050E-12,  5.393E+03,  2.791E+02, 255
2019-200T01:43:54.135,   1, 240,   2,     1,   4,          0,     44.153,  99294.559,    33.557,    -3.164,     0.544,   282.538, 2, 5.486E-04, -1.00,   2,  2.192E-02,  2.833E-03,  1.799E-11,  1.099E-12,  5.123E+03,  3.128E+02, 255
2019-200T01:44:33.135,   1, 240,   2,     1,   4,          0,     44.153,  99294.559,    33.552,    -3.163,     0.544,   282.144, 2, 5.486E-04, -1.00,   2,  3.199E-02,  3.389E-03,  2.548E-11,  1.661E-12,  4.971E+03,  3.240E+02, 255
2019-200T01:44:34.135,   1, 240,   2,     1,   4,          0,     44.153,  99294.559,    33.552,    -3.162,     0.544,   282.134, 2, 5.486E-04, -1.00,   2,  3.051E-02,  3.328E-03,  2.009E-11,  1.213E-12,  4.110E+03,  2.483E+02, 255
2019-200T01:44:35.135,   1, 240,   2,     1,   4,          0,     44.153,  99294.559,    33.552,    -3.162,     0.544,   282.124, 2, 5.486E-04, -1.00,   2,  1.804E-02,  3.183E-03,  1.712E-11,  9.710E-13,  5.922E+03,  3.359E+02, 255
2019-200T01:44:36.135,   1, 240,   2,     1,   4,          0,     44.153,  99294.559,    33.552,    -3.162,     0.544,   282.114, 2, 5.486E-04, -1.00,   2,  2.376E-02,  3.098E-03,  1.748E-11,  9.686E-13,  4.592E+03,  2.544E+02, 255
2019-200T01:44:48.135,   1, 240,   2,     1,   4,          0,     44.153,  99294.559,    33.550,    -3.162,     0.544,   281.993, 2, 5.486E-04, -1.00,   2,  1.720E-02,  3.659E-03,  1.255E-11,  2.205E-12,  4.555E+03,  8.003E+02, 255
2019-200T01:44:49.135,   1, 240,   2,     1,   4,          0,     44.153,  99294.559,    33.550,    -3.162,     0.544,   281.983, 2, 5.486E-04, -1.00,   2,  2.251E-02,  3.888E-03,  1.697E-11,  1.181E-12,  4.705E+03,  3.273E+02, 255
2019-200T01:44:50.135,   1, 240,   2,     1,   4,          0,     44.153,  99294.559,    33.550,    -3.162,     0.544,   281.973, 2, 5.486E-04, -1.00,   2,  2.388E-02,  3.465E-03,  1.539E-11,  1.087E-12,  4.024E+03,  2.843E+02, 255
2019-200T01:45:06.136,   1, 240,   2,     1,   4,          0,     44.153,  99294.559,    33.548,    -3.161,     0.544,   281.812, 2, 5.486E-04, -1.00,   2,  2.675E-02,  3.222E-03,  1.868E-11,  9.719E-13,  4.359E+03,  2.267E+02, 255
2019-200T01:45:07.136,   1, 240,   2,     1,   4,          0,     44.153,  99294.559,    33.548,    -3.161,     0.544,   281.802, 2, 5.486E-04, -1.00,   2,  2.492E-02,  2.844E-03,  1.231E-11,  1.069E-12,  3.083E+03,  2.678E+02, 255
2019-200T01:45:08.136,   1, 240,   2,     1,   4,          0,     44.153,  99294.559,    33.548,    -3.161,     0.544,   281.792, 2, 5.486E-04, -1.00,   2,  2.428E-02,  2.756E-03,  2.061E-11,  1.085E-12,  5.298E+03,  2.789E+02, 255
2019-200T01:45:24.136,   1, 240,   2,     1,   4,          0,     44.153,  99294.559,    33.546,    -3.160,     0.544,   281.630, 2, 5.486E-04, -1.00,   2,  2.492E-02,  2.742E-03,  2.064E-11,  1.150E-12,  5.170E+03,  2.880E+02, 255
2019-200T01:45:25.136,   1, 240,   2,     1,   4,          0,     44.153,  99294.559,    33.546,    -3.160,     0.544,   281.620, 2, 5.486E-04, -1.00,   2,  2.103E-02,  2.804E-03,  2.009E-11,  1.374E-12,  5.961E+03,  4.076E+02, 255
2019-200T01:45:26.136,   1, 240,   2,     1,   4,          0,     44.153,  99294.559,    33.546,    -3.160,     0.544,   281.610, 2, 5.486E-04, -1.00,   2,  3.036E-02,  2.756E-03,  1.546E-11,  2.586E-12,  3.178E+03,  5.315E+02, 255
2019-200T01:46:05.136,   1, 240,   2,     1,   4,          0,     44.153,  99294.559,    33.541,    -3.159,     0.544,   281.217, 2, 5.486E-04, -1.00,   2,  2.927E-02,  3.363E-03,  1.738E-11,  9.931E-13,  3.706E+03,  2.118E+02, 255
2019-200T01:46:06.136,   1, 240,   2,     1,   4,          0,     44.153,  99294.559,    33.541,    -3.158,     0.544,   281.207, 2, 5.486E-04, -1.00,   2,  1.934E-02,  3.268E-03,  1.625E-11,  9.859E-13,  5.246E+03,  3.182E+02, 255
2019-200T01:46:07.136,   1, 240,   2,     1,   4,          0,     44.153,  99294.559,    33.541,    -3.158,     0.544,   281.197, 2, 5.486E-04, -1.00,   2,  2.323E-02,  3.055E-03,  2.078E-11,  9.820E-13,  5.585E+03,  2.639E+02, 255
2019-200T01:47:08.137,   1, 240,   2,     1,   4,          0,     44.153,  99294.559,    33.534,    -3.156,     0.544,   280.581, 2, 5.486E-04, -1.00,   2,  2.173E-02,  2.774E-03,  1.464E-11,  1.004E-12,  4.204E+03,  2.885E+02, 255
2019-200T01:47:09.137,   1, 240,   2,     1,   4,          0,     44.153,  99294.559,    33.534,    -3.156,     0.544,   280.571, 2, 5.486E-04, -1.00,   2,  2.514E-02,  2.735E-03,  1.267E-11,  1.130E-12,  3.147E+03,  2.804E+02, 255
2019-200T01:47:10.137,   1, 240,   2,     1,   4,          0,     44.153,  99294.559,    33.534,    -3.156,     0.544,   280.561, 2, 5.486E-04, -1.00,   2,  2.276E-02,  2.732E-03,  1.466E-11,  1.324E-12,  4.020E+03,  3.630E+02, 255
2019-200T01:47:11.137,   1, 240,   2,     1,   4,          0,     44.153,  99294.559,    33.533,    -3.156,     0.544,   280.551, 2, 5.486E-04, -1.00,   2,  1.943E-02,  2.733E-03,  1.523E-11,  1.913E-12,  4.892E+03,  6.144E+02, 255
2019-200T01:47:37.137,   1, 240,   2,     1,   4,          0,     44.153,  99294.559,    33.530,    -3.155,     0.544,   280.289, 2, 5.486E-04, -1.00,   2,  1.100E-02,  3.126E-03,  1.613E-11,  9.726E-13,  9.158E+03,  5.520E+02, 255
2019-200T01:47:38.137,   1, 240,   2,     1,   4,          0,     44.153,  99294.559,    33.530,    -3.154,     0.544,   280.279, 2, 5.486E-04, -1.00,   2,  2.038E-02,  3.047E-03,  1.763E-11,  9.995E-13,  5.399E+03,  3.060E+02, 255
2019-200T01:47:39.137,   1, 240,   2,     1,   4,          0,     44.153,  99294.559,    33.530,    -3.154,     0.544,   280.269, 2, 5.486E-04, -1.00,   2,  2.048E-02,  2.782E-03,  9.594E-12,  1.131E-12,  2.923E+03,  3.447E+02, 255
2019-200T01:47:40.137,   1, 240,   2,     1,   4,          0,     44.153,  99294.559,    33.530,    -3.154,     0.544,   280.259, 2, 5.486E-04, -1.00,   2,  1.972E-02,  2.761E-03,  1.669E-11,  1.142E-12,  5.283E+03,  3.615E+02, 255
2019-200T01:47:41.137,   1, 240,   2,     1,   4,          0,     44.153,  99294.559,    33.530,    -3.154,     0.544,   280.249, 2, 5.486E-04, -1.00,   2,  2.321E-02,  2.703E-03,  1.575E-11,  1.713E-12,  4.235E+03,  4.607E+02, 255
2019-200T01:48:25.138,   1, 240,   2,     1,   4,          0,     44.153,  99294.559,    33.525,    -3.152,     0.544,   279.805, 2, 5.486E-04, -1.00,   2,  1.296E-02,  2.727E-03,  1.454E-11,  1.209E-12,  6.998E+03,  5.822E+02, 255
2019-200T01:48:26.138,   1, 240,   2,     1,   4,          0,     44.153,  99294.559,    33.525,    -3.152,     0.544,   279.795, 2, 5.486E-04, -1.00,   2,  1.359E-02,  2.801E-03,  1.422E-11,  1.380E-12,  6.531E+03,  6.341E+02, 255
2019-200T01:48:27.138,   1, 240,   2,     1,   4,          0,     44.153,  99294.559,    33.524,    -3.152,     0.544,   279.785, 2, 5.486E-04, -1.00,   2,  1.477E-02,  2.817E-03,  1.328E-11,  2.532E-12,  5.614E+03,  1.070E+03, 255
2019-200T01:51:55.140,   1, 240,   2,     1,   4,          0,     44.153,  99294.559,    33.500,    -3.143,     0.544,   277.687, 2, 5.486E-04, -1.00,   2,  1.426E-02,  2.788E-03,  1.098E-11,  1.092E-12,  4.805E+03,  4.780E+02, 255
2019-200T01:51:56.140,   1, 240,   2,     1,   4,          0,     44.153,  99294.559,    33.500,    -3.143,     0.544,   277.677, 2, 5.486E-04, -1.00,   2,  2.075E-02,  2.713E-03,  1.225E-11,  1.212E-12,  3.683E+03,  3.646E+02, 255
2019-200T01:51:57.140,   1, 240,   2,     1,   4,          0,     44.153,  99294.559,    33.500,    -3.143,     0.544,   277.667, 2, 5.486E-04, -1.00,   2,  8.804E-03,  2.862E-03,  9.610E-12,  1.428E-12,  6.813E+03,  1.012E+03, 255
2019-200T01:53:08.141,   1, 240,   2,     1,   4,          0,     44.153,  99294.559,    33.491,    -3.140,     0.544,   276.951, 2, 5.486E-04, -1.00,   2,  2.686E-02,  3.030E-03,  1.498E-11,  9.778E-13,  3.480E+03,  2.272E+02, 255
2019-200T01:53:09.141,   1, 240,   2,     1,   4,          0,     44.153,  99294.559,    33.491,    -3.140,     0.544,   276.941, 2, 5.486E-04, -1.00,   2,  1.709E-02,  2.753E-03,  1.722E-11,  9.970E-13,  6.288E+03,  3.641E+02, 255
2019-200T01:53:10.141,   1, 240,   2,     1,   4,          0,     44.153,  99294.559,    33.491,    -3.140,     0.544,   276.931, 2, 5.486E-04, -1.00,   2,  1.245E-02,  2.760E-03,  1.224E-11,  1.139E-12,  6.135E+03,  5.710E+02, 255
2019-200T01:53:11.141,   1, 240,   2,     1,   4,          0,     44.153,  99294.559,    33.491,    -3.140,     0.544,   276.921, 2, 5.486E-04, -1.00,   2,  2.529E-02,  2.716E-03,  1.462E-11,  1.609E-12,  3.608E+03,  3.970E+02, 255
2019-200T01:53:12.141,   1, 240,   2,     1,   4,          0,     44.153,  99294.559,    33.491,    -3.140,     0.544,   276.911, 2, 5.486E-04, -1.00,   2,  2.511E-02,  2.791E-03,  2.092E-11,  2.584E-12,  5.201E+03,  6.423E+02, 255
2019-200T01:54:19.142,   1, 240,   2,     1,   4,          0,     44.153,  99294.559,    33.483,    -3.137,     0.544,   276.235, 2, 5.486E-04, -1.00,   2,  1.427E-02,  3.883E-03,  1.812E-11,  2.138E-12,  7.927E+03,  9.349E+02, 255
2019-200T01:54:20.142,   1, 240,   2,     1,   4,          0,     44.153,  99294.559,    33.483,    -3.137,     0.544,   276.225, 2, 5.486E-04, -1.00,   2,  2.568E-02,  3.566E-03,  9.408E-12,  1.210E-12,  2.286E+03,  2.940E+02, 255
2019-200T01:54:21.142,   1, 240,   2,     1,   4,          0,     44.153,  99294.559,    33.483,    -3.137,     0.544,   276.215, 2, 5.486E-04, -1.00,   2,  2.602E-02,  3.713E-03,  1.163E-11,  1.066E-12,  2.791E+03,  2.558E+02, 255
2019-200T01:54:22.142,   1, 240,   2,     1,   4,          0,     44.153,  99294.559,    33.483,    -3.137,     0.544,   276.205, 2, 5.486E-04, -1.00,   2,  2.300E-02,  3.419E-03,  1.497E-11,  9.843E-13,  4.064E+03,  2.671E+02, 255
2019-200T01:54:23.142,   1, 240,   2,     1,   4,          0,     44.153,  99294.559,    33.482,    -3.137,     0.544,   276.195, 2, 5.486E-04, -1.00,   2,  1.807E-02,  2.976E-03,  1.411E-11,  1.018E-12,  4.874E+03,  3.515E+02, 255
2019-200T01:54:24.142,   1, 240,   2,     1,   4,          0,     44.153,  99294.559,    33.482,    -3.137,     0.544,   276.185, 2, 5.486E-04, -1.00,   2,  1.831E-02,  2.845E-03,  1.210E-11,  9.916E-13,  4.124E+03,  3.379E+02, 255
2019-200T01:54:25.142,   1, 240,   2,     1,   4,          0,     44.153,  99294.559,    33.482,    -3.137,     0.544,   276.175, 2, 5.486E-04, -1.00,   2,  2.180E-02,  2.747E-03,  1.420E-11,  1.084E-12,  4.065E+03,  3.104E+02, 255
2019-200T01:54:39.142,   1, 240,   2,     1,   4,          0,     44.153,  99294.559,    33.481,    -3.136,     0.544,   276.033, 2, 5.486E-04, -1.00,   2,  2.249E-02,  2.874E-03,  1.618E-11,  1.003E-12,  4.489E+03,  2.784E+02, 255
2019-200T01:54:40.142,   1, 240,   2,     1,   4,          0,     44.153,  99294.559,    33.480,    -3.136,     0.544,   276.023, 2, 5.486E-04, -1.00,   2,  2.334E-02,  2.827E-03,  1.742E-11,  1.093E-12,  4.660E+03,  2.922E+02, 255
2019-200T01:54:41.142,   1, 240,   2,     1,   4,          0,     44.153,  99294.559,    33.480,    -3.136,     0.544,   276.013, 2, 5.486E-04, -1.00,   2,  2.299E-02,  2.726E-03,  1.866E-11,  1.338E-12,  5.066E+03,  3.632E+02, 255